CZ-6A DEB, 55884

Orbit data source: Space-Track

CZ-6A DEB, 55884 is space debris in SSO originally from a launch on Fri, 11 Nov 2022 UTC launched from the Taiyaun Space Center, China (TSC). Debris objects in space refer to the collection of defunct objects orbiting the Earth. Examples of debris include non-operational satellites, rocket bodies, and fragments generated from explosions, collisions, or faulty payload assembly.

Loading next visibility...
Identifier
55884, 2022-151AAG
Orbit
SSO
Country
Flag of CNCN / PRC
Related business
Manufacturer
SAST
Mission
Spacecraft
Bus & Motor
Unknown
Mass
Unknown
Launch date (UTC)
2022-11-11 (4 years ago)
Launch vehicle
Unknown
Launch site
Taiyaun Space Center, China (TSC)
Object type
Payload
Rocket body
Debris
Shape & HBR
Unknown shape, 0.1 m
Radar Cross Section
Medium (>0.1 m² and <1 m²)

Expand to show TLE details & history
Last TLE update: 2 days ago

TLE from 2 days ago
0 CZ-6A DEB
1 55884U 22151AAG 26170.96430534  .00001459  00000-0  75993-3 0  9996
2 55884  98.8375 174.6189 0049167 328.3958  31.4265 14.15529446171127
Epoch: 2026-06-19T23:08Z
TLE epoch observation values (Epoch: 2026-06-19T23:08:35.981Z)
Latitude
-0.00006°
Longitude
-80.71674°
Altitude
813.172 km
Speed
7.462 km/s
True Right ascension
11h 38m 28s
True Declination
0° 00' 00"
Sunlit
Object was in daylight at epoch
Visualization orbit readout
Latitude
Unknown
Longitude
Unknown
Altitude
Unknown
Speed
Unknown
Apparent Right ascension
Unknown
Apparent Declination
Unknown
Sunlit
N/A
Visualization observer readout
Local Sidereal Time
21:52:37
Azimuth
Unknown
Elevation
Unknown
Doppler factor
Unknown
Orbital elements
Apogee altitude
873.16 km
Perigee altitude
802.204 km
Semi-major axis
7,215.819 km
Eccentricity
0.00492
Inclination
98.8375°
RAAN
174.6189°
Arg. of periapsis
328.3958°
True anomaly
31.72181°
Mean anomaly
31.4265°
Eccentric anomaly
31.574°
Mean motion
3.54091 °/min
Orbital period
101.67 mins
BSTAR
0.00075993
Loading maneuver chart data...
Computing Atmospheric mass density...
Loading historical data...
Loading historical data...
Loading historical data...
Loading historical data...
Loading historical data...
Loading historical data...
Loading historical data...

Documentation

Showing up to 5 results
|